Tracking 19489 objects as of 23-Jan-2019
HD Live streaming from Space Station
objects crossing your sky now

SL-8 R/B

Track SL-8 R/B now!
10-day predictions
SL-8 R/B is classified as:


NORAD ID: 15483
Int'l Code: 1985-006B
Perigee: 764.1 km
Apogee: 791.9 km
Inclination: 74.0 °
Period: 100.3 minutes
Semi major axis: 7149 km
RCS: 4.7342 m2 (large)
Launch date: January 17, 1985
Source: Commonwealth of Independent States (former USSR) (CIS)
Launch site: PLESETSK MISSILE AND SPACE COMPLEX (PKMTR)

Note: This is a ROCKET BODY
aabbcc
Your satellite tracking list
Your tracking list is empty




NASA's NSSDC Master Catalog

Two Line Element Set (TLE):
1 15483U 85006B   19021.48494684 +.00000042 +00000-0 +23390-4 0  9997
2 15483 074.0462 004.7104 0019430 205.6485 298.1805 14.36256020780297
Source of the keplerian elements: AFSPC